Weather History for Jacksonville, FL

Change the Weather History Date:

Tuesday, June 5, 2012

  Actual Average Record
Temperature  
Mean Temperature 81 °F 79 °F  
Max Temperature 92 °F 89 °F 100 °F (1943)
Min Temperature 70 °F 68 °F 59 °F (1972)
Degree Days  
Heating Degree Days 0 0  
Month to date heating degree days 0 0  
Since 1 June heating degree days 0 0  
Since 1 July heating degree days 921 1349  
Cooling Degree Days 16 14  
Month to date cooling degree days 70 66  
Year to date cooling degree days 734 550  
Since 1 June cooling degree days 70 66  
Growing Degree Days 30 (Base 50)    
Moisture  
Dew Point 70 °F    
Average Humidity 75    
Maximum Humidity 100    
Minimum Humidity 49    
Precipitation  
Precipitation 0.75 in 0.17 in 3.31 in (1969)
Month to date precipitation 0.91 0.84  
Year to date precipitation 15.83 16.40  
Snow  
Snow 0.00 in 0.00 in 0.00 in (2002)
Month to date snowfall 0.0 0.0  
Since 1 June snowfall 0.0 0.0  
Since 1 July snowfall T T  
Snow Depth 0.00 in    
Sea Level Pressure  
Sea Level Pressure 29.79 in    
Wind  
Wind Speed 7 mph (West)    
Max Wind Speed 23 mph    
Max Gust Speed 30 mph    
Visibility 7 miles    
Events Rain , Thunderstorm    
T = Trace of Precipitation, MM = Missing Value Source: NWS Daily Summary

Daily Weather History Graph

Daily Weather History Graph

Search for Another Location

Airport:

Trip Planner

Search our weather history database for the weather conditions in past years. The results will help you decide how hot, cold, wet, or windy it might be!

Date:

Astronomy

Jun. 05, 2012 Rise Set
Actual Time 6:24 AM EDT 8:26 PM EDT
Civil Twilight 5:56 AM EDT 8:54 PM EDT
Nautical Twilight 5:23 AM EDT 9:27 PM EDT
Astronomical Twilight 4:48 AM EDT 10:03 PM EDT
Moon 9:53 PM EDT (6/5) 7:33 AM EDT (6/5)
Length of Visible Light 14h 57m
Length of Day
14h 02m
Full, 98% of the Moon is Illuminated
Jun 5
Full
Jun 11
Last Quarter
Jun 19
New
Jun 26
First Quarter
Jul 3
Full

Hourly Weather History & Observations

Time (EDT) Temp. Heat Index Dew Point Humidity Pressure Visibility Wind Dir Wind Speed Gust Speed Precip Events Conditions
12:56 AM 75.9 °F - 73.0 °F 91% 29.79 in 10.0 mi WSW 8.1 mph - N/A   Mostly Cloudy
1:56 AM 73.9 °F - 72.0 °F 93% 29.77 in 9.0 mi West 5.8 mph - N/A   Scattered Clouds
2:56 AM 73.0 °F - 72.0 °F 96% 29.75 in 7.0 mi West 5.8 mph - N/A   Partly Cloudy
3:56 AM 73.0 °F - 72.0 °F 96% 29.75 in 7.0 mi WSW 5.8 mph - N/A   Partly Cloudy
4:56 AM 73.0 °F - 71.1 °F 93% 29.77 in 7.0 mi WSW 5.8 mph - N/A   Scattered Clouds
5:56 AM 72.0 °F - 71.1 °F 97% 29.77 in 6.0 mi West 5.8 mph - N/A   Scattered Clouds
6:39 AM 71.6 °F - 71.6 °F 100% 29.79 in 2.0 mi WSW 5.8 mph - N/A   Scattered Clouds
6:56 AM 72.0 °F - 71.1 °F 97% 29.80 in 2.0 mi West 3.5 mph - N/A   Mostly Cloudy
7:56 AM 73.9 °F - 72.0 °F 93% 29.81 in 3.0 mi WSW 5.8 mph - N/A   Mostly Cloudy
8:56 AM 78.1 °F - 72.0 °F 81% 29.81 in 10.0 mi SW 8.1 mph - N/A   Mostly Cloudy
9:56 AM 82.0 °F 86.3 °F 71.1 °F 69% 29.81 in 10.0 mi WSW 8.1 mph - N/A   Mostly Cloudy
10:56 AM 84.9 °F 91.4 °F 73.0 °F 67% 29.81 in 10.0 mi WSW 5.8 mph - N/A   Mostly Cloudy
11:56 AM 86.0 °F 93.0 °F 73.0 °F 65% 29.80 in 10.0 mi West 5.8 mph - N/A   Mostly Cloudy
12:56 PM 89.1 °F 96.0 °F 72.0 °F 57% 29.78 in 10.0 mi West 10.4 mph - N/A   Mostly Cloudy
1:56 PM 89.1 °F 95.0 °F 71.1 °F 55% 29.75 in 10.0 mi West 9.2 mph - N/A   Mostly Cloudy
2:56 PM 91.0 °F 95.6 °F 69.1 °F 48% 29.73 in 10.0 mi WSW 10.4 mph - N/A   Mostly Cloudy
3:56 PM 91.9 °F 97.4 °F 70.0 °F 48% 29.74 in 10.0 mi WNW 10.4 mph - N/A   Mostly Cloudy
4:56 PM 87.1 °F 89.9 °F 66.9 °F 51% 29.74 in 10.0 mi NW 4.6 mph - N/A   Mostly Cloudy
5:01 PM 87.8 °F 91.4 °F 68.0 °F 52% 29.74 in 10.0 mi NW 3.5 mph - N/A Thunderstorm Thunderstorm
5:43 PM 80.6 °F 83.9 °F 69.8 °F 70% 29.75 in 10.0 mi NE 21.9 mph - N/A   Overcast
5:53 PM 78.8 °F - 68.0 °F 69% 29.75 in 10.0 mi NE 17.3 mph 29.9 mph N/A   Overcast
5:56 PM 78.1 °F - 68.0 °F 71% 29.76 in 10.0 mi NE 15.0 mph 29.9 mph N/A   Overcast
6:06 PM 78.8 °F - 68.0 °F 69% 29.77 in 10.0 mi ENE 13.8 mph - N/A Thunderstorm Thunderstorm
6:56 PM 72.0 °F - 69.1 °F 91% 29.81 in 10.0 mi North 8.1 mph - 0.00 in Thunderstorm Thunderstorm
7:56 PM 71.1 °F - 69.1 °F 93% 29.83 in 3.0 mi NNW 10.4 mph - 0.00 in Rain , Thunderstorm Thunderstorms and Rain
7:59 PM 69.8 °F - 69.8 °F 100% 29.83 in 1.5 mi WNW 8.1 mph - 0.02 in Rain , Thunderstorm Heavy Thunderstorms and Rain
8:10 PM 69.8 °F - 69.8 °F 100% 29.81 in 3.0 mi East 4.6 mph - 0.23 in Rain , Thunderstorm Light Thunderstorms and Rain
8:56 PM 71.1 °F - 69.1 °F 93% 29.81 in 10.0 mi SE 8.1 mph - 0.23 in Thunderstorm Thunderstorm
9:49 PM 69.8 °F - 69.8 °F 100% 29.87 in 2.0 mi Calm Calm - 0.13 in Rain , Thunderstorm Heavy Thunderstorms and Rain
9:56 PM 70.0 °F - 69.1 °F 97% 29.86 in 2.0 mi Calm Calm - 0.24 in Rain , Thunderstorm Heavy Thunderstorms and Rain
10:13 PM 69.8 °F - 69.8 °F 100% 29.86 in 4.0 mi SE 3.5 mph - 0.03 in Rain , Thunderstorm Light Thunderstorms and Rain
10:56 PM 71.1 °F - 69.1 °F 93% 29.84 in 5.0 mi ESE 8.1 mph - 0.19 in Rain , Thunderstorm Heavy Thunderstorms and Rain
11:56 PM 71.1 °F - 69.1 °F 93% 29.86 in 8.0 mi South 9.2 mph - 0.05 in Thunderstorm Thunderstorm